Location: Unnamed
(25.2826°S, 57.6099°W)
Time: 00:18:31
(UTC-04:00)

Envisat - Pass Details

Date: 22 January 2026
Orbit: 761 x 763 km, 98.4° (Epoch: 18 February)

Event Time Altitude Azimuth Distance (km) Brightness Sun altitude
Exits shadow 02:21:32 15° 207° (SSW) 1,998 5.3 -33.7°
Drops below altitude 10° 02:22:22 10° 204° (SSW) 2,314 5.7 -33.6°
Sets 02:24:45 0° 199° (SSW) 3,246 6.6 -33.2°
